Eau Claire, WI

6:59 PM CST on November 11, 2019 (GMT -0600)
Chippewa Valley Regional

Weather History for KEAU - October, 2019

Change the Weather History Date:

Wednesday, October 16, 2019

  Actual Average Record
Temperature  
Mean Temperature 46 °F 47 °F  
Max Temperature 51 °F 58 °F 85 °F (1947)
Min Temperature 42 °F 37 °F 17 °F (1952)
Degree Days  
Heating Degree Days 18 18  
Month to date heating degree days 230 240  
Since 1 July heating degree days 338 473  
Cooling Degree Days 0 0  
Month to date cooling degree days 0 4  
Year to date cooling degree days 463 579  
Moisture  
Dew Point 36 °F    
Average Humidity 71    
Maximum Humidity 82    
Minimum Humidity 52    
Precipitation  
Precipitation 0.00 in 0.07 in 1.95 in (1911)
Month to date precipitation 3.10 1.37  
Year to date precipitation 37.39 27.17  
Snow  
Snow 0.00 in 0.00 in 0.50 in (1992)
Month to date snowfall T 0.1  
Since 1 July snowfall T 0.1  
Since 1 September snowfall T 0.1  
Snow Depth 0.00 in    
Sea Level Pressure  
Sea Level Pressure 30.03 in    
Wind  
Wind Speed 9 mph ()    
Max Wind Speed 16 mph    
Max Gust Speed 23 mph    
Visibility 10.0 miles    
Events      
T = Trace of Precipitation, MM = Missing Value Source: Averaged Metar Reports

Daily Weather History Graph

Daily Weather History Graph

Search for Another Location

Airport or City:

Astronomy

Oct. 16, 2019 Rise Set
Actual Time 7:22 AM CDT 6:19 PM CDT
Civil Twilight 6:52 AM CDT 6:49 PM CDT
Nautical Twilight 6:19 AM CDT 7:23 PM CDT
Astronomical Twilight 5:45 AM CDT 7:57 PM CDT
Moon 8:07 PM CDT (10/16) 9:58 AM CDT (10/16)
Length of Visible Light 11h 56m
Length of Day
10h 57m
Waning Gibbous, 92% of the Moon is Illuminated
Oct 16
Waning Gibbous
Oct 21
Last Quarter
Oct 27
New
Nov 4
First Quarter
Nov 12
Full

Hourly Weather History & Observations

Time (CDT) Temp. Windchill Dew Point Humidity Pressure Visibility Wind Dir Wind Speed Gust Speed Precip Events Conditions
12:19 AM 43.0 °F 36.0 °F 37.0 °F 80% 29.95 in 10.0 mi NW 13.8 mph 21.9 mph N/A   Overcast
12:56 AM 43.0 °F 36.4 °F 36.0 °F 76% 29.97 in 10.0 mi NNW 12.7 mph - N/A   Overcast
1:56 AM 43.0 °F 36.4 °F 36.0 °F 76% 29.99 in 10.0 mi NW 12.7 mph 23.0 mph N/A   Overcast
2:06 AM 43.0 °F 36.4 °F 36.0 °F 76% 29.97 in 10.0 mi NW 12.7 mph - N/A   Mostly Cloudy
2:19 AM 43.0 °F 36.8 °F 36.0 °F 76% 29.97 in 10.0 mi NW 11.5 mph 20.7 mph N/A   Scattered Clouds
2:37 AM 44.1 °F 38.1 °F 36.0 °F 73% 29.98 in 10.0 mi NNW 11.5 mph 23.0 mph N/A   Mostly Cloudy
2:56 AM 44.1 °F 38.1 °F 36.0 °F 73% 30.01 in 10.0 mi NNW 11.5 mph - N/A   Overcast
3:28 AM 44.1 °F 38.1 °F 36.0 °F 73% 29.99 in 10.0 mi NNW 11.5 mph - N/A   Overcast
3:56 AM 43.0 °F 37.2 °F 37.0 °F 80% 30.01 in 10.0 mi NW 10.4 mph 23.0 mph N/A   Overcast
4:56 AM 42.1 °F 36.6 °F 37.0 °F 82% 30.02 in 10.0 mi NW 9.2 mph - N/A   Mostly Cloudy
5:04 AM 43.0 °F 38.2 °F 37.0 °F 80% 30.00 in 10.0 mi NW 8.1 mph - N/A   Mostly Cloudy
5:26 AM 43.0 °F 36.8 °F 37.0 °F 80% 30.01 in 10.0 mi NW 11.5 mph - N/A   Mostly Cloudy
5:56 AM 43.0 °F 36.4 °F 36.0 °F 76% 30.03 in 10.0 mi NW 12.7 mph - N/A   Scattered Clouds
6:56 AM 43.0 °F 37.7 °F 37.0 °F 80% 30.04 in 10.0 mi NW 9.2 mph - N/A   Mostly Cloudy
7:56 AM 44.1 °F 40.8 °F 37.9 °F 79% 30.04 in 10.0 mi NW 5.8 mph - N/A   Overcast
8:17 AM 44.1 °F 40.1 °F 37.9 °F 79% 30.03 in 10.0 mi NW 6.9 mph - N/A   Overcast
8:56 AM 45.0 °F 40.1 °F 37.0 °F 74% 30.05 in 10.0 mi NW 9.2 mph - N/A   Overcast
9:14 AM 45.0 °F 39.7 °F 37.0 °F 74% 30.04 in 10.0 mi NW 10.4 mph - N/A   Overcast
9:56 AM 46.0 °F 41.0 °F 37.0 °F 71% 30.07 in 10.0 mi NNW 10.4 mph - N/A   Overcast
10:56 AM 46.0 °F 40.6 °F 36.0 °F 68% 30.09 in 10.0 mi NW 11.5 mph - N/A   Overcast
11:56 AM 46.9 °F - 34.0 °F 61% 30.09 in 10.0 mi NW 15.0 mph 23.0 mph N/A   Overcast
12:38 PM 48.0 °F - 34.0 °F 58% 30.07 in 10.0 mi NNW 10.4 mph - N/A   Overcast
12:56 PM 50.0 °F - 34.0 °F 54% 30.07 in 10.0 mi NNW 10.4 mph - N/A   Mostly Cloudy
1:56 PM 48.9 °F - 34.0 °F 56% 30.06 in 10.0 mi NW 9.2 mph - N/A   Overcast
2:56 PM 50.0 °F - 34.0 °F 54% 30.06 in 10.0 mi NW 8.1 mph - N/A   Overcast
3:56 PM 50.0 °F - 34.0 °F 54% 30.04 in 10.0 mi NW 6.9 mph - N/A   Overcast
4:56 PM 50.0 °F - 35.1 °F 57% 30.04 in 10.0 mi West 5.8 mph - N/A   Overcast
5:56 PM 48.0 °F - 36.0 °F 63% 30.04 in 10.0 mi West 8.1 mph - N/A   Overcast
6:56 PM 46.9 °F - 37.9 °F 71% 30.04 in 10.0 mi West 5.8 mph - N/A   Overcast
7:56 PM 46.9 °F - 37.9 °F 71% 30.04 in 10.0 mi West 6.9 mph - N/A   Overcast
8:56 PM 46.0 °F 43.1 °F 37.9 °F 73% 30.05 in 10.0 mi WNW 5.8 mph - N/A   Overcast
9:56 PM 46.0 °F 42.5 °F 37.9 °F 73% 30.05 in 10.0 mi NW 6.9 mph - N/A   Overcast
10:56 PM 45.0 °F 41.8 °F 37.0 °F 74% 30.06 in 10.0 mi WNW 5.8 mph - N/A   Overcast
11:56 PM 45.0 °F 43.5 °F 37.0 °F 74% 30.06 in 10.0 mi West 3.5 mph - N/A   Overcast